User: anonymous   Login
Location: Nitra
(0.0000°N, 18.0833°E)
Time: 07:01:18
(UTC+02:00)
Language:

Oscar 19 - Orbit

View from above orbital plane
View from above orbital plane
View from above satellite
View from above satellite

Ground track
Ground track

The orbit data is extracted from the following two-line orbital elements,

1 20442U 90005G   24105.84727483  .00000386  00000-0  15660-3 0  9999
2 20442  98.8808  94.4599 0012025  16.9113 343.2469 14.33484998788766
Epoch (UTC): 14 April 2024 20:20:04
Eccentricity: 0.0012025
inclination: 98.8808°
perigee height: 771 km
apogee height: 789 km
right ascension of ascending node: 94.4599°
argument of perigee: 16.9113°
revolutions per day: 14.33484998
mean anomaly at epoch: 343.2469°
orbit number at epoch: 78876

The dashed part of the orbit path shows where the satellite is in the earth's shadow,  

DLR